THY3SD LTAZ-LTFM

Flight info

Callsign THY3SD
Flight time 1h 3m
Altitude 36000
Route AZBUL1A/11 AZBUL UW75 BAG UL605 YAVRU UL615 ERSEN
Aircraft A321/M-SDE3FGHIRWY/LB1

Departure

Time 2026-04-16 20:01
Airport Nevşehir Kapadokya Airport (LTAZ)

Arrival

Time 2026-04-16 21:04
Airport İstanbul Airport (LTFM)
Time Latitude Longitude Altitude Speed Heading
2026-04-16 19:32 38.77276 34.52433 3076 ft 0 kts 331°
2026-04-16 19:53 38.77282 34.52433 3083 ft 1 kts 355°
2026-04-16 19:53 38.77299 34.52434 3082 ft 3 kts 11°
2026-04-16 19:53 38.77320 34.52455 3076 ft 3 kts 62°
2026-04-16 19:53 38.77317 34.52491 3076 ft 4 kts 84°
2026-04-16 19:54 38.77337 34.52509 3076 ft 4 kts 28°
2026-04-16 19:54 38.77371 34.52532 3082 ft 5 kts 28°
2026-04-16 19:54 38.77372 34.52533 3081 ft 0 kts 28°
2026-04-16 19:57 38.77375 34.52535 3080 ft 1 kts 28°
2026-04-16 19:57 38.77390 34.52546 3078 ft 4 kts 28°
2026-04-16 19:58 38.77420 34.52565 3076 ft 6 kts 27°
2026-04-16 19:58 38.77464 34.52594 3078 ft 8 kts 27°
2026-04-16 19:58 38.77523 34.52608 3083 ft 9 kts 334°
2026-04-16 19:58 38.77558 34.52537 3082 ft 10 kts 297°
2026-04-16 19:59 38.77595 34.52448 3083 ft 12 kts 298°
2026-04-16 19:59 38.77639 34.52341 3082 ft 15 kts 297°
2026-04-16 19:59 38.77688 34.52216 3083 ft 16 kts 297°
2026-04-16 20:00 38.77746 34.51977 3071 ft 11 kts 272°
2026-04-16 20:00 38.77789 34.51934 3066 ft 7 kts 34°
2026-04-16 20:00 38.77784 34.51979 3081 ft 6 kts 116°
2026-04-16 20:00 38.77781 34.51987 3080 ft 0 kts 117°
2026-04-16 20:01 38.77743 34.52086 3081 ft 43 kts 116°
2026-04-16 20:01 38.77492 34.52709 3084 ft 113 kts 117°
2026-04-16 20:01 38.77038 34.53833 3100 ft 167 kts 118°
2026-04-16 20:01 38.76510 34.55151 3776 ft 166 kts 116°
2026-04-16 20:02 38.76001 34.56526 4400 ft 173 kts 113°
2026-04-16 20:02 38.75471 34.58009 4714 ft 194 kts 113°
2026-04-16 20:02 38.74878 34.59660 4969 ft 212 kts 112°
2026-04-16 20:02 38.74249 34.61407 5424 ft 218 kts 112°
2026-04-16 20:03 38.73612 34.63176 5987 ft 219 kts 113°
2026-04-16 20:03 38.72894 34.64866 6518 ft 222 kts 128°
2026-04-16 20:03 38.71602 34.65970 6983 ft 230 kts 161°
2026-04-16 20:03 38.70003 34.65962 7455 ft 237 kts 196°
2026-04-16 20:04 38.68661 34.64765 7969 ft 241 kts 232°
2026-04-16 20:04 38.68092 34.62762 8466 ft 244 kts 268°
2026-04-16 20:04 38.68542 34.60706 8971 ft 244 kts 304°
2026-04-16 20:04 38.69812 34.59313 9484 ft 243 kts 330°
2026-04-16 20:05 38.71280 34.58238 10000 ft 243 kts 330°
2026-04-16 20:05 38.72758 34.57167 10467 ft 244 kts 330°
2026-04-16 20:05 38.74239 34.56098 10940 ft 245 kts 330°
2026-04-16 20:05 38.75720 34.55025 11405 ft 245 kts 330°
2026-04-16 20:06 38.77144 34.53826 11835 ft 247 kts 317°
2026-04-16 20:06 38.78306 34.52119 11969 ft 264 kts 308°
2026-04-16 20:06 38.79507 34.50210 12102 ft 287 kts 308°
2026-04-16 20:06 38.80808 34.48130 12273 ft 311 kts 308°
2026-04-16 20:07 38.82207 34.45887 12422 ft 334 kts 308°
2026-04-16 20:07 38.83665 34.43547 12836 ft 345 kts 308°
2026-04-16 20:07 38.85170 34.41129 13503 ft 349 kts 308°
2026-04-16 20:07 38.86686 34.38688 14167 ft 351 kts 308°
2026-04-16 20:08 38.88215 34.36229 14795 ft 354 kts 308°
2026-04-16 20:08 38.89760 34.33749 15430 ft 357 kts 308°
2026-04-16 20:08 38.91316 34.31249 16069 ft 359 kts 308°
2026-04-16 20:08 38.92878 34.28734 16730 ft 361 kts 308°
2026-04-16 20:09 38.94450 34.26199 17386 ft 364 kts 308°
2026-04-16 20:09 38.96031 34.23646 18021 ft 366 kts 308°
2026-04-16 20:09 38.97621 34.21078 18606 ft 369 kts 308°
2026-04-16 20:09 38.99227 34.18484 19148 ft 372 kts 308°
2026-04-16 20:10 39.00842 34.15870 19688 ft 374 kts 308°
2026-04-16 20:10 39.02464 34.13240 20231 ft 377 kts 308°
2026-04-16 20:10 39.04100 34.10583 20776 ft 380 kts 308°
2026-04-16 20:10 39.05751 34.07904 21313 ft 383 kts 308°
2026-04-16 20:11 39.07411 34.05210 21862 ft 386 kts 307°
2026-04-16 20:11 39.09087 34.02488 22420 ft 388 kts 307°
2026-04-16 20:11 39.10768 33.99757 22959 ft 391 kts 307°
2026-04-16 20:11 39.12463 33.97001 23486 ft 393 kts 307°
2026-04-16 20:12 39.14166 33.94226 23914 ft 396 kts 307°
2026-04-16 20:12 39.15877 33.91437 24337 ft 399 kts 307°
2026-04-16 20:12 39.17600 33.88624 24743 ft 401 kts 307°
2026-04-16 20:12 39.19333 33.85793 25147 ft 403 kts 307°
2026-04-16 20:13 39.21069 33.82952 25547 ft 405 kts 307°
2026-04-16 20:13 39.22821 33.80086 25950 ft 408 kts 307°
2026-04-16 20:13 39.24582 33.77205 26343 ft 410 kts 307°
2026-04-16 20:13 39.26354 33.74311 26744 ft 412 kts 307°
2026-04-16 20:14 39.28135 33.71395 27112 ft 414 kts 307°
2026-04-16 20:14 39.29921 33.68463 27487 ft 417 kts 307°
2026-04-16 20:14 39.31716 33.65513 27866 ft 419 kts 307°
2026-04-16 20:14 39.33496 33.62588 28241 ft 421 kts 307°
2026-04-16 20:15 39.35334 33.59567 28615 ft 423 kts 307°
2026-04-16 20:15 39.37164 33.56639 28983 ft 426 kts 309°
2026-04-16 20:15 39.39153 33.53789 29346 ft 428 kts 312°
2026-04-16 20:15 39.41224 33.51018 29710 ft 430 kts 313°
2026-04-16 20:16 39.43333 33.48257 30055 ft 432 kts 313°
2026-04-16 20:16 39.45438 33.45471 30358 ft 434 kts 313°
2026-04-16 20:16 39.47528 33.42640 30671 ft 436 kts 312°
2026-04-16 20:16 39.49601 33.39767 30999 ft 437 kts 311°
2026-04-16 20:17 39.51660 33.36869 31319 ft 438 kts 311°
2026-04-16 20:17 39.53718 33.33951 31698 ft 438 kts 310°
2026-04-16 20:17 39.55763 33.31041 32146 ft 436 kts 310°
2026-04-16 20:17 39.57804 33.28143 32600 ft 434 kts 310°
2026-04-16 20:18 39.59844 33.25261 33040 ft 432 kts 311°
2026-04-16 20:18 39.61878 33.22395 33465 ft 431 kts 310°
2026-04-16 20:18 39.63881 33.19567 33900 ft 429 kts 310°
2026-04-16 20:18 39.65896 33.16719 34295 ft 427 kts 310°
2026-04-16 20:19 39.67900 33.13888 34673 ft 426 kts 310°
2026-04-16 20:19 39.69901 33.11057 35036 ft 424 kts 310°
2026-04-16 20:19 39.71892 33.08234 35396 ft 423 kts 310°
2026-04-16 20:19 39.73877 33.05416 35747 ft 421 kts 310°
2026-04-16 20:20 39.75853 33.02610 36001 ft 421 kts 310°
2026-04-16 20:20 39.77828 32.99809 36047 ft 418 kts 310°
2026-04-16 20:20 39.81711 32.94284 36060 ft 416 kts 310°
2026-04-16 20:21 39.85476 32.88911 36054 ft 415 kts 310°
2026-04-16 20:21 39.89363 32.83351 36063 ft 415 kts 310°
2026-04-16 20:22 39.93252 32.77787 36059 ft 415 kts 310°
2026-04-16 20:22 39.97142 32.72214 36073 ft 415 kts 310°
2026-04-16 20:23 40.01029 32.66629 36078 ft 416 kts 310°
2026-04-16 20:23 40.04914 32.61032 36072 ft 416 kts 310°
2026-04-16 20:24 40.08796 32.55428 36077 ft 416 kts 310°
2026-04-16 20:24 40.12684 32.49830 36078 ft 416 kts 310°
2026-04-16 20:25 40.16572 32.44219 36093 ft 416 kts 310°
2026-04-16 20:25 40.20417 32.38643 36079 ft 415 kts 310°
2026-04-16 20:26 40.24280 32.33029 36089 ft 415 kts 310°
2026-04-16 20:26 40.28141 32.27409 36096 ft 415 kts 310°
2026-04-16 20:27 40.31994 32.21794 36094 ft 414 kts 310°
2026-04-16 20:27 40.35845 32.16167 36101 ft 414 kts 310°
2026-04-16 20:28 40.39694 32.10540 36100 ft 414 kts 310°
2026-04-16 20:28 40.43541 32.04902 36110 ft 414 kts 310°
2026-04-16 20:29 40.47359 31.99304 36105 ft 414 kts 310°
2026-04-16 20:29 40.51220 31.93620 36107 ft 414 kts 310°
2026-04-16 20:30 40.55017 31.88015 36110 ft 414 kts 310°
2026-04-16 20:30 40.58771 31.82294 36106 ft 412 kts 302°
2026-04-16 20:31 40.60136 31.78998 36112 ft 409 kts 290°
2026-04-16 20:31 40.61057 31.75462 36114 ft 409 kts 288°
2026-04-16 20:31 40.62762 31.68315 36104 ft 409 kts 286°
2026-04-16 20:32 40.64386 31.61136 36111 ft 410 kts 286°
2026-04-16 20:32 40.66001 31.53935 36103 ft 410 kts 286°
2026-04-16 20:33 40.67626 31.46739 36105 ft 410 kts 286°
2026-04-16 20:33 40.69265 31.39530 36115 ft 410 kts 286°
2026-04-16 20:34 40.70581 31.32219 35979 ft 410 kts 278°
2026-04-16 20:34 40.70965 31.28464 35240 ft 415 kts 278°
2026-04-16 20:34 40.71338 31.24711 34837 ft 412 kts 277°
2026-04-16 20:35 40.71703 31.20980 34390 ft 409 kts 277°
2026-04-16 20:35 40.72062 31.17273 33918 ft 406 kts 277°
2026-04-16 20:35 40.72414 31.13640 33473 ft 402 kts 277°
2026-04-16 20:35 40.72767 31.10001 33028 ft 398 kts 277°
2026-04-16 20:36 40.73116 31.06395 32586 ft 394 kts 277°
2026-04-16 20:36 40.73460 31.02824 32147 ft 391 kts 277°
2026-04-16 20:36 40.73803 30.99291 31719 ft 387 kts 277°
2026-04-16 20:36 40.74143 30.95782 31286 ft 384 kts 277°
2026-04-16 20:37 40.74477 30.92307 30870 ft 381 kts 277°
2026-04-16 20:37 40.74807 30.88853 30449 ft 379 kts 277°
2026-04-16 20:37 40.75133 30.85421 30005 ft 376 kts 277°
2026-04-16 20:37 40.75346 30.83159 29726 ft 374 kts 277°
2026-04-16 20:38 40.75665 30.79770 29322 ft 371 kts 277°
2026-04-16 20:38 40.75982 30.76410 28932 ft 368 kts 277°
2026-04-16 20:38 40.76299 30.73063 28541 ft 365 kts 277°
2026-04-16 20:38 40.76613 30.69753 28154 ft 362 kts 277°
2026-04-16 20:39 40.76922 30.66472 27794 ft 359 kts 277°
2026-04-16 20:39 40.77226 30.63216 27426 ft 356 kts 277°
2026-04-16 20:39 40.77527 30.59993 27066 ft 352 kts 277°
2026-04-16 20:39 40.77820 30.56802 26709 ft 349 kts 277°
2026-04-16 20:40 40.78106 30.53648 26363 ft 345 kts 277°
2026-04-16 20:40 40.78394 30.50518 26004 ft 341 kts 277°
2026-04-16 20:40 40.78681 30.47420 25652 ft 338 kts 277°
2026-04-16 20:40 40.78962 30.44356 25297 ft 335 kts 277°
2026-04-16 20:41 40.79238 30.41356 24941 ft 333 kts 277°
2026-04-16 20:41 40.79516 30.38333 24583 ft 331 kts 277°
2026-04-16 20:41 40.79788 30.35328 24218 ft 329 kts 277°
2026-04-16 20:41 40.80055 30.32340 23854 ft 327 kts 277°
2026-04-16 20:42 40.80320 30.29368 23453 ft 325 kts 277°
2026-04-16 20:42 40.80583 30.26415 23061 ft 323 kts 277°
2026-04-16 20:42 40.80843 30.23482 22692 ft 320 kts 277°
2026-04-16 20:42 40.81105 30.20567 22321 ft 318 kts 277°
2026-04-16 20:43 40.81366 30.17675 21947 ft 316 kts 277°
2026-04-16 20:43 40.81622 30.14794 21574 ft 315 kts 277°
2026-04-16 20:43 40.81875 30.11934 21205 ft 313 kts 277°
2026-04-16 20:43 40.82126 30.09087 20835 ft 311 kts 277°
2026-04-16 20:44 40.82375 30.06264 20471 ft 309 kts 277°
2026-04-16 20:44 40.82623 30.03452 20100 ft 308 kts 277°
2026-04-16 20:44 40.82868 30.00656 19740 ft 306 kts 277°
2026-04-16 20:44 40.83112 29.97871 19377 ft 304 kts 277°
2026-04-16 20:45 40.83353 29.95109 19013 ft 303 kts 277°
2026-04-16 20:45 40.83593 29.92349 18655 ft 301 kts 277°
2026-04-16 20:45 40.83831 29.89605 18272 ft 300 kts 276°
2026-04-16 20:45 40.84063 29.86910 17901 ft 298 kts 276°
2026-04-16 20:46 40.84297 29.84202 17536 ft 296 kts 276°
2026-04-16 20:46 40.84529 29.81508 17186 ft 294 kts 276°
2026-04-16 20:46 40.84756 29.78828 16835 ft 293 kts 276°
2026-04-16 20:46 40.84982 29.76161 16481 ft 292 kts 276°
2026-04-16 20:47 40.85209 29.73500 16128 ft 290 kts 276°
2026-04-16 20:47 40.85433 29.70862 15786 ft 289 kts 276°
2026-04-16 20:47 40.85658 29.68223 15429 ft 288 kts 276°
2026-04-16 20:47 40.85882 29.65599 15080 ft 287 kts 276°
2026-04-16 20:48 40.86101 29.62985 14736 ft 286 kts 276°
2026-04-16 20:48 40.86320 29.60375 14390 ft 285 kts 276°
2026-04-16 20:48 40.86539 29.57771 14052 ft 285 kts 276°
2026-04-16 20:48 40.86755 29.55175 13688 ft 284 kts 276°
2026-04-16 20:49 40.86971 29.52585 13334 ft 283 kts 276°
2026-04-16 20:49 40.87186 29.50005 12995 ft 282 kts 276°
2026-04-16 20:49 40.87401 29.47443 12658 ft 280 kts 276°
2026-04-16 20:49 40.87612 29.44886 12314 ft 279 kts 276°
2026-04-16 20:50 40.87823 29.42318 11896 ft 281 kts 276°
2026-04-16 20:50 40.88033 29.39756 11545 ft 280 kts 276°
2026-04-16 20:50 40.88240 29.37206 11205 ft 279 kts 276°
2026-04-16 20:50 40.88445 29.34665 10870 ft 278 kts 276°
2026-04-16 20:51 40.88651 29.32131 10535 ft 277 kts 277°
2026-04-16 20:51 40.88857 29.29605 10203 ft 276 kts 277°
2026-04-16 20:51 40.89058 29.27118 9852 ft 275 kts 277°
2026-04-16 20:51 40.89261 29.24607 9505 ft 274 kts 277°
2026-04-16 20:52 40.89462 29.22112 9172 ft 272 kts 277°
2026-04-16 20:52 40.89661 29.19636 8842 ft 270 kts 277°
2026-04-16 20:52 40.89859 29.17173 8509 ft 269 kts 277°
2026-04-16 20:52 40.90056 29.14722 8184 ft 267 kts 277°
2026-04-16 20:53 40.90250 29.12284 7858 ft 266 kts 277°
2026-04-16 20:53 40.90443 29.09857 7534 ft 265 kts 277°
2026-04-16 20:53 40.90635 29.07432 7283 ft 262 kts 276°
2026-04-16 20:53 40.90820 29.05084 7147 ft 253 kts 277°
2026-04-16 20:54 40.91000 29.02799 6970 ft 246 kts 277°
2026-04-16 20:54 40.91017 29.00545 6918 ft 247 kts 262°
2026-04-16 20:54 40.90609 28.98333 6736 ft 247 kts 255°
2026-04-16 20:54 40.90146 28.96149 6511 ft 247 kts 255°
2026-04-16 20:55 40.89684 28.93965 6278 ft 246 kts 255°
2026-04-16 20:55 40.89221 28.91780 6047 ft 247 kts 255°
2026-04-16 20:55 40.88760 28.89595 5810 ft 247 kts 255°
2026-04-16 20:55 40.88299 28.87409 5585 ft 247 kts 255°
2026-04-16 20:56 40.87840 28.85217 5363 ft 248 kts 257°
2026-04-16 20:56 40.87791 28.82983 5127 ft 243 kts 287°
2026-04-16 20:56 40.88597 28.81071 4921 ft 239 kts 319°
2026-04-16 20:56 40.89979 28.79990 4723 ft 233 kts 348°
2026-04-16 20:57 40.91567 28.79507 4552 ft 235 kts 351°
2026-04-16 20:57 40.93162 28.79035 4376 ft 234 kts 351°
2026-04-16 20:57 40.94748 28.78562 4191 ft 233 kts 351°
2026-04-16 20:57 40.96326 28.78090 4060 ft 232 kts 350°
2026-04-16 20:58 40.97903 28.77616 4005 ft 232 kts 351°
2026-04-16 20:58 40.99479 28.77139 4039 ft 233 kts 351°
2026-04-16 20:58 41.01055 28.76664 4008 ft 230 kts 351°
2026-04-16 20:58 41.02561 28.76207 3994 ft 214 kts 351°
2026-04-16 20:59 41.04011 28.76007 4011 ft 208 kts
2026-04-16 20:59 41.05408 28.76031 4032 ft 199 kts
2026-04-16 20:59 41.06769 28.76028 4006 ft 191 kts
2026-04-16 20:59 41.08090 28.76010 3877 ft 189 kts
2026-04-16 21:00 41.09394 28.75987 3657 ft 186 kts
2026-04-16 21:00 41.10686 28.75963 3434 ft 185 kts
2026-04-16 21:00 41.11963 28.75939 3188 ft 180 kts
2026-04-16 21:00 41.13173 28.75914 2979 ft 168 kts
2026-04-16 21:01 41.14310 28.75893 2783 ft 163 kts
2026-04-16 21:01 41.15436 28.75872 2540 ft 161 kts
2026-04-16 21:01 41.16544 28.75852 2316 ft 158 kts
2026-04-16 21:01 41.17633 28.75832 2124 ft 155 kts
2026-04-16 21:02 41.18679 28.75811 1894 ft 142 kts
2026-04-16 21:02 41.19644 28.75793 1711 ft 136 kts
2026-04-16 21:02 41.20584 28.75776 1516 ft 134 kts
2026-04-16 21:03 41.22428 28.75745 1126 ft 132 kts
2026-04-16 21:03 41.23351 28.75725 922 ft 132 kts
2026-04-16 21:03 41.24271 28.75704 732 ft 132 kts
2026-04-16 21:03 41.25192 28.75685 569 ft 131 kts
2026-04-16 21:04 41.26104 28.75670 395 ft 131 kts
2026-04-16 21:04 41.26980 28.75654 334 ft 114 kts
2026-04-16 21:04 41.27623 28.75643 333 ft 70 kts
2026-04-16 21:04 41.27950 28.75627 331 ft 31 kts 346°
2026-04-16 21:05 41.28086 28.75533 334 ft 18 kts 328°
2026-04-16 21:05 41.28164 28.75439 333 ft 6 kts 284°
2026-04-16 21:05 41.28154 28.75382 334 ft 7 kts 238°
2026-04-16 21:05 41.28106 28.75350 334 ft 9 kts 184°
2026-04-16 21:06 41.28039 28.75350 330 ft 11 kts 178°
2026-04-16 21:06 41.27959 28.75352 330 ft 12 kts 179°
2026-04-16 21:06 41.27868 28.75354 333 ft 14 kts 179°
2026-04-16 21:06 41.27766 28.75356 333 ft 15 kts 179°
2026-04-16 21:07 41.27667 28.75356 330 ft 13 kts 185°
2026-04-16 21:07 41.27626 28.75277 332 ft 11 kts 269°
2026-04-16 21:07 41.27623 28.75174 333 ft 12 kts 269°
2026-04-16 21:07 41.27609 28.75084 332 ft 5 kts 207°
2026-04-16 21:08 41.27591 28.75086 332 ft 2 kts 176°
2026-04-16 21:08 41.27577 28.75087 330 ft 2 kts 177°